Time,TemperatureF,DewpointF,PressureIn,WindDirection,WindDirectionDegrees,WindSpeedMPH,WindSpeedGustMPH,Humidity,HourlyPrecipIn,Conditions,Clouds,dailyrainin,SolarRadiationWatts/m^2,SoftwareType,DateUTC
2013-09-29 00:03:00,72.6,71.0,29.96,SE,141,0.0,0.0,96,0.00,,,0.00,0,weatherlink.com 1.10,2013-09-29 04:03:00,
2013-09-29 00:34:00,72.2,71.0,29.96,SE,141,0.0,0.0,96,0.00,,,0.00,0,weatherlink.com 1.10,2013-09-29 04:34:00,
2013-09-29 00:49:00,72.1,71.0,29.96,SE,141,0.0,0.0,96,0.00,,,0.00,0,weatherlink.com 1.10,2013-09-29 04:49:00,
2013-09-29 01:21:00,71.9,71.0,29.95,SE,141,0.0,0.0,97,0.00,,,0.00,0,weatherlink.com 1.10,2013-09-29 05:21:00,
2013-09-29 01:36:00,71.6,71.0,29.94,SE,141,0.0,0.0,97,0.00,,,0.00,0,weatherlink.com 1.10,2013-09-29 05:36:00,
2013-09-29 01:49:00,71.5,71.0,29.93,SE,141,0.0,0.0,97,0.00,,,0.00,0,weatherlink.com 1.10,2013-09-29 05:49:00,
2013-09-29 02:06:00,71.3,70.0,29.93,SE,141,0.0,0.0,97,0.00,,,0.00,0,weatherlink.com 1.10,2013-09-29 06:06:00,
2013-09-29 02:21:00,70.9,70.0,29.93,SE,141,0.0,0.0,97,0.00,,,0.00,0,weatherlink.com 1.10,2013-09-29 06:21:00,
2013-09-29 02:34:00,70.8,70.0,29.93,SE,141,0.0,0.0,97,0.00,,,0.00,0,weatherlink.com 1.10,2013-09-29 06:34:00,
2013-09-29 02:49:00,70.7,70.0,29.93,SE,141,0.0,0.0,97,0.00,,,0.00,0,weatherlink.com 1.10,2013-09-29 06:49:00,
2013-09-29 03:13:00,70.3,69.0,29.93,SE,141,0.0,0.0,97,0.00,,,0.00,0,weatherlink.com 1.10,2013-09-29 07:13:00,
2013-09-29 03:19:00,70.2,69.0,29.93,SE,141,0.0,0.0,97,0.00,,,0.00,0,weatherlink.com 1.10,2013-09-29 07:19:00,
2013-09-29 03:34:00,70.0,69.0,29.93,SE,141,0.0,0.0,97,0.00,,,0.00,0,weatherlink.com 1.10,2013-09-29 07:34:00,
2013-09-29 04:05:00,69.7,69.0,29.92,SE,141,0.0,0.0,97,0.00,,,0.00,0,weatherlink.com 1.10,2013-09-29 08:05:00,
2013-09-29 04:40:00,69.4,69.0,29.92,SE,141,0.0,0.0,97,0.00,,,0.00,0,weatherlink.com 1.10,2013-09-29 08:40:00,
2013-09-29 04:49:00,69.3,69.0,29.92,SE,141,0.0,0.0,97,0.00,,,0.00,0,weatherlink.com 1.10,2013-09-29 08:49:00,
2013-09-29 05:04:00,69.2,68.0,29.92,SE,141,0.0,0.0,97,0.00,,,0.00,0,weatherlink.com 1.10,2013-09-29 09:04:00,
2013-09-29 05:22:00,69.1,68.0,29.92,SE,141,0.0,0.0,97,0.00,,,0.00,0,weatherlink.com 1.10,2013-09-29 09:22:00,
2013-09-29 05:35:00,69.0,68.0,29.93,SE,141,0.0,0.0,97,0.00,,,0.00,0,weatherlink.com 1.10,2013-09-29 09:35:00,
2013-09-29 05:50:00,68.8,68.0,29.93,SE,141,0.0,0.0,97,0.00,,,0.00,0,weatherlink.com 1.10,2013-09-29 09:50:00,
2013-09-29 06:05:00,68.8,68.0,29.93,SE,141,0.0,0.0,97,0.00,,,0.00,0,weatherlink.com 1.10,2013-09-29 10:05:00,
2013-09-29 06:20:00,68.7,68.0,29.94,SE,141,0.0,0.0,97,0.00,,,0.00,0,weatherlink.com 1.10,2013-09-29 10:20:00,
2013-09-29 07:02:00,68.5,68.0,29.95,SE,141,0.0,0.0,98,0.00,,,0.00,0,weatherlink.com 1.10,2013-09-29 11:02:00,
2013-09-29 07:20:00,68.5,68.0,29.95,WSW,257,0.0,1.0,98,0.00,,,0.00,9,weatherlink.com 1.10,2013-09-29 11:20:00,
2013-09-29 07:36:00,68.9,68.0,29.95,WSW,257,0.0,0.0,98,0.00,,,0.00,19,weatherlink.com 1.10,2013-09-29 11:36:00,
2013-09-29 07:50:00,69.5,69.0,29.95,WSW,257,0.0,0.0,98,0.00,,,0.00,30,weatherlink.com 1.10,2013-09-29 11:50:00,
2013-09-29 08:08:00,70.9,70.0,29.95,WSW,257,0.0,0.0,98,0.00,,,0.00,35,weatherlink.com 1.10,2013-09-29 12:08:00,
2013-09-29 08:21:00,71.8,72.0,29.96,WSW,257,0.0,2.0,99,0.00,,,0.00,63,weatherlink.com 1.10,2013-09-29 12:21:00,
2013-09-29 08:36:00,72.7,72.0,29.96,WSW,257,1.0,2.0,98,0.00,,,0.00,111,weatherlink.com 1.10,2013-09-29 12:36:00,
2013-09-29 08:51:00,73.7,73.0,29.96,WSW,257,0.0,2.0,97,0.00,,,0.00,98,weatherlink.com 1.10,2013-09-29 12:51:00,
2013-09-29 09:06:00,74.8,74.0,29.97,WSW,257,0.0,1.0,96,0.00,,,0.00,114,weatherlink.com 1.10,2013-09-29 13:06:00,
2013-09-29 09:21:00,75.5,74.0,29.97,WSW,257,0.0,1.0,95,0.00,,,0.00,148,weatherlink.com 1.10,2013-09-29 13:21:00,
2013-09-29 09:36:00,76.5,74.0,29.97,WNW,294,0.0,2.0,93,0.00,,,0.00,65,weatherlink.com 1.10,2013-09-29 13:36:00,
2013-09-29 09:51:00,76.8,74.0,29.97,NW,321,0.0,2.0,91,0.00,,,0.00,88,weatherlink.com 1.10,2013-09-29 13:51:00,
2013-09-29 10:06:00,78.3,74.0,29.98,NNW,335,1.0,2.0,85,0.00,,,0.00,578,weatherlink.com 1.10,2013-09-29 14:06:00,
2013-09-29 10:21:00,80.9,74.0,29.97,NE,35,2.0,3.0,80,0.00,,,0.00,585,weatherlink.com 1.10,2013-09-29 14:21:00,
2013-09-29 10:36:00,82.6,74.0,29.98,NE,51,0.0,3.0,74,0.00,,,0.00,649,weatherlink.com 1.10,2013-09-29 14:36:00,
2013-09-29 10:51:00,83.3,73.0,29.97,North,11,0.0,4.0,71,0.00,,,0.00,700,weatherlink.com 1.10,2013-09-29 14:51:00,
2013-09-29 11:06:00,84.5,74.0,29.97,NE,46,0.0,2.0,71,0.00,,,0.00,654,weatherlink.com 1.10,2013-09-29 15:06:00,
2013-09-29 11:21:00,85.5,75.0,29.97,SE,146,0.0,4.0,70,0.00,,,0.00,220,weatherlink.com 1.10,2013-09-29 15:21:00,
2013-09-29 11:36:00,85.1,73.0,29.97,NNE,29,0.0,3.0,67,0.00,,,0.00,137,weatherlink.com 1.10,2013-09-29 15:36:00,
2013-09-29 11:51:00,84.0,73.0,29.97,NE,48,0.0,2.0,69,0.00,,,0.00,223,weatherlink.com 1.10,2013-09-29 15:51:00,
2013-09-29 12:06:00,83.4,74.0,29.96,NE,45,0.0,2.0,72,0.00,,,0.00,127,weatherlink.com 1.10,2013-09-29 16:06:00,
2013-09-29 12:21:00,84.2,72.0,29.96,ESE,103,0.0,3.0,67,0.00,,,0.00,137,weatherlink.com 1.10,2013-09-29 16:21:00,
2013-09-29 12:36:00,85.1,73.0,29.95,NE,40,1.0,4.0,67,0.00,,,0.00,752,weatherlink.com 1.10,2013-09-29 16:36:00,
2013-09-29 12:51:00,86.2,72.0,29.95,ENE,71,0.0,5.0,63,0.00,,,0.00,127,weatherlink.com 1.10,2013-09-29 16:51:00,
2013-09-29 13:06:00,85.8,72.0,29.94,East,84,0.0,3.0,64,0.00,,,0.00,940,weatherlink.com 1.10,2013-09-29 17:06:00,
2013-09-29 13:21:00,87.1,72.0,29.93,SSE,154,0.0,5.0,62,0.01,,,0.01,944,weatherlink.com 1.10,2013-09-29 17:21:00,
2013-09-29 13:36:00,87.6,71.0,29.93,SSE,150,0.0,5.0,59,0.01,,,0.01,925,weatherlink.com 1.10,2013-09-29 17:36:00,
2013-09-29 13:51:00,87.4,72.0,29.92,NNW,342,1.0,4.0,60,0.01,,,0.01,1072,weatherlink.com 1.10,2013-09-29 17:51:00,
2013-09-29 14:06:00,86.6,71.0,29.92,SSE,159,0.0,3.0,60,0.01,,,0.01,142,weatherlink.com 1.10,2013-09-29 18:06:00,
2013-09-29 14:21:00,86.1,73.0,29.91,ENE,66,0.0,2.0,65,0.00,,,0.01,190,weatherlink.com 1.10,2013-09-29 18:21:00,
2013-09-29 14:37:00,85.5,72.0,29.91,SSE,157,0.0,3.0,64,0.00,,,0.01,155,weatherlink.com 1.10,2013-09-29 18:37:00,
2013-09-29 14:52:00,85.0,72.0,29.90,East,92,0.0,2.0,65,0.00,,,0.01,178,weatherlink.com 1.10,2013-09-29 18:52:00,
2013-09-29 15:07:00,85.2,73.0,29.90,North,5,1.0,4.0,66,0.00,,,0.01,821,weatherlink.com 1.10,2013-09-29 19:07:00,
2013-09-29 15:22:00,86.3,74.0,29.89,SE,127,0.0,3.0,66,0.00,,,0.01,795,weatherlink.com 1.10,2013-09-29 19:22:00,
2013-09-29 15:37:00,86.7,73.0,29.89,East,86,1.0,6.0,64,0.00,,,0.01,701,weatherlink.com 1.10,2013-09-29 19:37:00,
2013-09-29 15:52:00,86.3,73.0,29.89,SSE,168,5.0,6.0,65,0.00,,,0.01,264,weatherlink.com 1.10,2013-09-29 19:52:00,
2013-09-29 16:07:00,85.6,73.0,29.88,NE,49,4.0,7.0,65,0.00,,,0.01,185,weatherlink.com 1.10,2013-09-29 20:07:00,
2013-09-29 16:22:00,85.2,73.0,29.88,ESE,105,0.0,5.0,67,0.00,,,0.01,181,weatherlink.com 1.10,2013-09-29 20:22:00,
2013-09-29 16:37:00,84.6,72.0,29.89,NNE,30,0.0,4.0,67,0.00,,,0.01,107,weatherlink.com 1.10,2013-09-29 20:37:00,
2013-09-29 16:52:00,83.8,73.0,29.89,North,360,3.0,3.0,69,0.00,,,0.01,83,weatherlink.com 1.10,2013-09-29 20:52:00,
2013-09-29 17:07:00,83.9,72.0,29.89,NNE,32,0.0,4.0,68,0.00,,,0.01,93,weatherlink.com 1.10,2013-09-29 21:07:00,
2013-09-29 17:22:00,83.6,72.0,29.89,NE,46,1.0,7.0,68,0.00,,,0.01,70,weatherlink.com 1.10,2013-09-29 21:22:00,
2013-09-29 17:37:00,83.5,71.0,29.89,NE,50,3.0,7.0,67,0.00,,,0.01,56,weatherlink.com 1.10,2013-09-29 21:37:00,
2013-09-29 17:52:00,83.0,71.0,29.89,ESE,115,1.0,6.0,67,0.00,,,0.01,30,weatherlink.com 1.10,2013-09-29 21:52:00,
2013-09-29 18:07:00,82.1,71.0,29.90,ESE,113,0.0,3.0,69,0.00,,,0.01,42,weatherlink.com 1.10,2013-09-29 22:07:00,
2013-09-29 18:22:00,81.7,71.0,29.91,ENE,65,0.0,5.0,70,0.00,,,0.01,47,weatherlink.com 1.10,2013-09-29 22:22:00,
2013-09-29 18:37:00,81.5,71.0,29.91,SE,135,0.0,4.0,71,0.00,,,0.01,25,weatherlink.com 1.10,2013-09-29 22:37:00,
2013-09-29 18:52:00,81.1,72.0,29.91,ENE,62,1.0,4.0,73,0.00,,,0.01,11,weatherlink.com 1.10,2013-09-29 22:52:00,
2013-09-29 19:07:00,80.5,72.0,29.91,ESE,113,0.0,3.0,74,0.00,,,0.01,0,weatherlink.com 1.10,2013-09-29 23:07:00,
2013-09-29 19:22:00,79.9,71.0,29.92,NNE,26,0.0,2.0,75,0.00,,,0.01,0,weatherlink.com 1.10,2013-09-29 23:22:00,
2013-09-29 19:37:00,79.5,71.0,29.92,ENE,72,0.0,1.0,76,0.00,,,0.01,0,weatherlink.com 1.10,2013-09-29 23:37:00,
2013-09-29 20:07:00,78.5,72.0,29.93,ENE,72,0.0,1.0,79,0.00,,,0.01,0,weatherlink.com 1.10,2013-09-30 00:07:00,
2013-09-29 20:22:00,78.0,71.0,29.94,ENE,72,0.0,0.0,80,0.00,,,0.01,0,weatherlink.com 1.10,2013-09-30 00:22:00,
2013-09-29 20:37:00,77.3,71.0,29.94,ENE,72,0.0,0.0,82,0.00,,,0.01,0,weatherlink.com 1.10,2013-09-30 00:37:00,
2013-09-29 20:52:00,76.6,72.0,29.94,ENE,72,0.0,0.0,84,0.00,,,0.01,0,weatherlink.com 1.10,2013-09-30 00:52:00,
2013-09-29 21:07:00,76.1,71.0,29.94,ENE,72,0.0,0.0,85,0.00,,,0.01,0,weatherlink.com 1.10,2013-09-30 01:07:00,
2013-09-29 21:22:00,75.7,71.0,29.95,ENE,72,0.0,0.0,86,0.00,,,0.01,0,weatherlink.com 1.10,2013-09-30 01:22:00,
2013-09-29 21:37:00,75.3,71.0,29.95,ENE,72,0.0,0.0,87,0.00,,,0.01,0,weatherlink.com 1.10,2013-09-30 01:37:00,
2013-09-29 21:52:00,75.0,71.0,29.96,ENE,72,0.0,0.0,88,0.00,,,0.01,0,weatherlink.com 1.10,2013-09-30 01:52:00,
2013-09-29 22:07:00,74.6,71.0,29.96,ENE,72,0.0,0.0,89,0.00,,,0.01,0,weatherlink.com 1.10,2013-09-30 02:07:00,
2013-09-29 22:22:00,74.3,71.0,29.96,ENE,72,0.0,0.0,90,0.00,,,0.01,0,weatherlink.com 1.10,2013-09-30 02:22:00,
2013-09-29 22:37:00,73.9,71.0,29.97,ENE,72,0.0,0.0,90,0.00,,,0.01,0,weatherlink.com 1.10,2013-09-30 02:37:00,
2013-09-29 22:52:00,73.8,71.0,29.97,ENE,72,0.0,0.0,91,0.00,,,0.01,0,weatherlink.com 1.10,2013-09-30 02:52:00,
2013-09-29 23:07:00,73.6,71.0,29.97,ENE,72,0.0,0.0,91,0.00,,,0.01,0,weatherlink.com 1.10,2013-09-30 03:07:00,
2013-09-29 23:22:00,73.3,71.0,29.97,ENE,72,0.0,0.0,92,0.00,,,0.01,0,weatherlink.com 1.10,2013-09-30 03:22:00,
2013-09-29 23:37:00,73.1,71.0,29.96,ENE,72,0.0,0.0,92,0.00,,,0.01,0,weatherlink.com 1.10,2013-09-30 03:37:00,
2013-09-29 23:52:00,72.8,71.0,29.96,ENE,72,0.0,0.0,93,0.00,,,0.01,0,weatherlink.com 1.10,2013-09-30 03:52:00,